This is the latest recevied weather packets stored in our database for station/object EA7OC-10. If no packets are shown the sender has not sent any weather packets the latest 10 day(s).
| Time | Temp. | Humidity | Pressure | Rain* | Wind** | Luminosity | Snow |
|---|---|---|---|---|---|---|---|
| 1777862570 | 18.89° C | 33% | 1014.8 hPa | - | - | - | - |
| 1777861670 | 18.33° C | 33% | 1014.8 hPa | - | - | - | - |
| 1777860770 | 18.33° C | 33% | 1014.9 hPa | - | - | - | - |
| 1777859870 | 18.33° C | 33% | 1015 hPa | - | - | - | - |
| 1777858970 | 17.78° C | 33% | 1015.1 hPa | - | - | - | - |
| 1777858070 | 17.22° C | 33% | 1015.2 hPa | - | - | - | - |
| 1777857170 | 16.67° C | 32% | 1015.2 hPa | - | - | - | - |
| 1777856269 | 16.67° C | 32% | 1015.3 hPa | - | - | - | - |
| 1777855369 | 17.22° C | 32% | 1015.3 hPa | - | - | - | - |
| 1777854469 | 17.78° C | 32% | 1015.4 hPa | - | - | - | - |
| 1777853569 | 18.33° C | 32% | 1015.6 hPa | - | - | - | - |
| 1777852665 | 18.89° C | 32% | 1015.6 hPa | - | - | - | - |
| 1777851765 | 19.44° C | 32% | 1015.7 hPa | - | - | - | - |
| 1777850865 | 19.44° C | 32% | 1015.7 hPa | - | - | - | - |
| 1777849965 | 20.56° C | 32% | 1015.4 hPa | - | - | - | - |
| 1777849065 | 20.56° C | 32% | 1015.3 hPa | - | - | - | - |
| 1777848165 | 20.56° C | 32% | 1015.2 hPa | - | - | - | - |
| 1777847265 | 20.56° C | 32% | 1015.3 hPa | - | - | - | - |
| 1777846364 | 21.11° C | 31% | 1015.2 hPa | - | - | - | - |
| 1777845464 | 21.11° C | 31% | 1015.2 hPa | - | - | - | - |
| 1777844564 | 21.11° C | 31% | 1015.1 hPa | - | - | - | - |
| 1777843664 | 21.11° C | 31% | 1015 hPa | - | - | - | - |
| 1777842764 | 21.67° C | 31% | 1014.8 hPa | - | - | - | - |
| 1777841864 | 22.22° C | 30% | 1014.7 hPa | - | - | - | - |
| 1777840964 | 22.22° C | 30% | 1014.5 hPa | - | - | - | - |
* Rain since midnight (hover to see other rain measurements)
** Current wind speed in m/s (hover to see current wind gust speed)